Flag for Germany Weather past 2 weeks in Wittenberg, Saxony-Anhalt, Germany

Now
37 °F

Light rain. Passing clouds.


Feels Like: 27 °F
Forecast: 33 / 38 °F
Wind: 18 mph from Southwest

Location: Holzdorf

Current Time: Jan 28, 2015 at 10:08:40 PM

Latest Report: Jan 28, 2015 at 9:20 PM


Visibility: N/A

Pressure: 29.39 "Hg

Humidity: 93%

Dew point: 36 °F

Location of WittenbergLocation

Historic Weather in Wittenberg — Graph

°F

Wittenberg temperature yesterday

Maximum temperature yesterday: 39 °F (at 11:20 AM)
Minimum temperature yesterday: 36 °F (at 12:20 AM)
Average temperature yesterday: 38 °F

Past Weeks' High & Low Weather Summary

 TemperatureHumidityPressure
High54 °F (Jan 13, 8:20 PM)100% (Jan 16, 6:20 PM)30.30 "Hg (Jan 16, 6:20 PM)
Low25 °F (Jan 18, 5:20 AM)47% (Jan 13, 8:20 PM)29.42 "Hg (Jan 28, 8:00 PM)
Average36 °F88%29.96 "Hg
* Reported Jan 13 8:20 PM — Jan 28 8:20 PM, Wittenberg, Weather by CustomWeather, © 2014

Note: Actual official high and low records may vary slightly from our data, if they occured in-between our weather recording intervals... More about our weather records

Advertising

Wittenberg weather history for previous 24 hours

 ConditionsComfort  
Time TempWeatherWind HumidityBarometerVisibility
8:20 PM
Jan 28
41 °FPassing clouds.15 mph70%29.42 "HgN/A
8:00 PM41 °FPassing clouds.18 mph70%29.42 "HgN/A
7:20 PM41 °FPassing clouds.18 mph70%29.47 "HgN/A
6:20 PM41 °FPassing clouds.16 mph70%29.53 "HgN/A
5:20 PM41 °FPassing clouds.17 mph70%29.56 "HgN/A
4:20 PM41 °FPartly sunny.16 mph70%29.62 "HgN/A
3:20 PM41 °FPartly sunny.17 mph70%29.68 "HgN/A
2:20 PM43 °FBroken clouds.14 mph71%29.71 "HgN/A
1:20 PM41 °FPartly sunny.12 mph76%29.77 "HgN/A
12:20 PM41 °FPartly sunny.14 mph76%29.83 "HgN/A
11:20 AM41 °FBroken clouds.14 mph76%29.89 "HgN/A
10:20 AM37 °FBroken clouds.10 mph87%29.92 "HgN/A
9:20 AM37 °FBroken clouds.9 mph87%29.95 "HgN/A
8:20 AM36 °FBroken clouds.6 mph93%29.95 "HgN/A
7:20 AM36 °FPartly cloudy.7 mph93%29.98 "HgN/A
6:20 AM36 °FLight rain. Passing clouds.8 mph93%29.98 "HgN/A
5:20 AM34 °FPassing clouds.5 mph100%30.01 "HgN/A
4:20 AM36 °FPassing clouds.8 mph93%30.01 "HgN/A
3:20 AM36 °FPassing clouds.9 mph93%30.04 "HgN/A
2:20 AM36 °FPassing clouds.12 mph93%30.04 "HgN/A
1:20 AM36 °FPassing clouds.8 mph93%30.04 "HgN/A
12:20 AM36 °FPassing clouds.10 mph93%30.04 "HgN/A
11:20 PM
Jan 27
36 °FPassing clouds.9 mph93%30.04 "HgN/A
10:20 PM36 °FPassing clouds.8 mph93%30.04 "HgN/A
Weather by CustomWeather, © 2014

See weather overviewHow to use our weather pages